Date,TemperatureHighF,TemperatureAvgF,TemperatureLowF,DewpointHighF,DewpointAvgF,DewpointLowF,HumidityHigh,HumidityAvg,HumidityLow,PressureMaxIn,PressureMinIn,WindSpeedMaxMPH,WindSpeedAvgMPH,GustSpeedMaxMPH,PrecipitationSumIn
2013-2-1,68,52,39,46,40,32,89,65,40,30.09,29.97,1,0,3,0.00
2013-2-2,58,51,46,48,44,38,86,77,68,30.17,30.08,2,0,2,0.00
2013-2-3,60,51,44,46,41,36,83,68,52,30.13,30.00,2,0,3,0.00
2013-2-4,57,48,40,48,42,33,92,79,67,30.07,29.94,0,0,5,0.00
2013-2-5,57,50,42,44,42,36,86,73,59,30.04,29.95,4,0,5,0.00
2013-2-6,60,47,36,44,37,30,87,68,48,30.08,29.99,0,0,4,0.00
2013-2-7,57,46,38,45,35,30,84,68,41,30.06,29.88,4,0,4,0.00
2013-2-8,56,46,41,42,36,32,87,71,47,29.90,29.83,2,0,6,0.00
2013-2-9,59,46,34,34,27,23,78,52,26,29.98,29.87,0,0,2,0.00
2013-2-10,61,46,32,36,30,24,75,55,32,30.01,29.88,2,0,5,0.00
2013-2-11,65,49,35,37,28,19,81,50,19,30.11,29.94,3,0,3,0.00
2013-2-12,63,48,36,42,34,27,84,59,35,30.23,30.11,1,0,4,0.00
2013-2-13,65,50,36,43,37,29,82,62,41,30.22,30.08,0,0,4,0.00
2013-2-14,70,54,39,45,37,33,88,57,30,30.13,30.01,0,0,4,0.00
2013-2-15,74,56,41,42,38,33,79,53,28,30.14,30.05,1,0,2,0.00
2013-2-16,71,55,43,46,40,34,80,59,37,30.09,29.91,3,0,3,0.00
2013-2-17,65,53,46,46,41,37,84,65,42,29.94,29.83,4,0,4,0.00
2013-2-18,54,48,41,43,37,34,84,67,49,29.93,29.85,2,0,4,0.00
2013-2-19,51,46,41,42,37,33,81,72,62,29.86,29.64,6,0,6,0.00
2013-2-20,61,47,35,40,34,28,85,63,34,29.96,29.72,5,0,5,0.00
2013-2-21,61,49,38,40,32,27,83,57,27,30.05,29.93,4,0,4,0.00
2013-2-22,63,49,35,41,34,27,79,57,34,30.14,30.04,0,0,6,0.00
2013-2-23,60,52,46,44,37,31,79,58,35,30.13,30.02,7,0,8,0.00
2013-2-24,65,52,41,36,27,18,61,41,19,30.14,30.03,1,0,3,0.00
2013-2-25,64,50,37,41,34,27,76,55,37,30.16,30.03,5,0,5,0.00
2013-2-26,69,52,38,37,29,21,82,47,19,30.09,29.99,2,0,4,0.00
2013-2-27,69,49,37,41,32,27,75,55,24,30.19,30.08,2,0,3,0.00